Location: ?????
(55.6500°N, 37.2500°E)
Time: 05:02:48
(UTC+00:00)

Okean-O - Pass Details

Date: 19 May 2025
Orbit: 628 x 631 km, 98.0° (Epoch: 19 June)

Event Time Altitude Azimuth Distance (km) Brightness Sun altitude
Rises 18:26:40 0° 179° (S) 2,915 5.6 -5.3°
Reaches altitude 10° 18:28:55 10° 185° (S) 2,012 4.8 -5.5°
Maximum altitude 18:33:10 49° 260° (W) 826 3.5 -5.9°
Drops below altitude 10° 18:37:27 10° 336° (NNW) 2,027 6.7 -6.3°
Sets 18:39:44 0° 342° (NNW) 2,939 7.6 -6.5°
